Погода в Новомеловатке

Россия / Воронежская область     50˚26′27″N   40˚46′55″E
темп.,
°C
ветер,
м/с
пор.,
м/с
влажн.,
%
обл.,
%
осадки,
мм/ч
давл.,
гПа
погр.,
м
17 января, вс
вс1700:00−16˚з6139386 0.0 1014348
03:00−19˚зюз499752 0.0 1015150
06:00−20˚зюз48980 0.0 1014127
09:00−21˚з34976 0.0 101546
12:00−17˚з23934 0.0 1015164
15:00−17˚сз229538 0.0 1016108
18:00−18˚св1295100 0.0 101620
21:00−18˚св2394100 0.0 101770
18 января, пн
пн1800:00−19˚св3495100 0.0 101781
03:00−18˚св4695100 0.0 1016170
06:00−18˚св3595100 0.0 1016180
09:00−17˚св4696100 0.1 1017209
12:00−15˚св2395100 0.9 1017237
15:00−15˚ссв3495100 1.7 1016229
18:00−16˚ссв2397100 0.4 1017114
21:00−17˚ссз229799 0.6 101835
19 января, вт
вт1900:00−19˚с229889 0.1 101820
03:00−20˚ссз229895 0.1 101820
06:00−21˚сз229999 0.0 101820
09:00−19˚зсз229799 0.1 101980
12:00−17˚з239399 0.1 1018235
15:00−16˚зсз2494100 0.2 1017278
18:00−19˚з239896 0.1 101822
21:00−18˚з349795 0.1 1019100
20 января, ср
ср2000:00−21˚з349994 0.0 101971
03:00−20˚з479796 0.1 1020238
06:00−19˚з479699 0.1 1021251
09:00−19˚з479698 0.1 1023227
12:00−17˚з359588 0.0 1024252
15:00−17˚з479590 0.0 1024278
18:00−20˚з349881 0.0 102654
21:00−20˚зсз349844 0.0 102746
21 января, чт
чт2100:00−21˚з23998 0.0 102824
03:00−21˚з349911 0.0 102942
06:00−20˚зюз33998 0.0 102937
09:00−20˚юз349723 0.0 103067
12:00−15˚юз479278 0.0 1029209
15:00−13˚ююз589184 0.0 1027261
18:00−13˚ююз51089100 0.0 1026228
21:00−10˚ююз71295100 0.2 1025321